Dauntless Aviation
Airports Europe Czech Republic
LKPO
PRV

Přerov Air Base

Přerov, CZECH REPUBLIC

Airport Info
Suggest Updated Information for this Airport

Location

Latitude / Longitude: 49°25'32"N / 17°24'16"E
  49°25.548'N / 17°24.282'E
  49.4258 / 17.4047

Nearby radio navigation aids

CK PREROV NDB. 63.6° 2.8nm from CK to field.

Runway Information

Runway 06 /24

Dimensions: 8202 x 196 ft.
Surface: ASP
 
Runway 06
Runway 24
Latitude: 49.421419 49.430439
Longitude: 17.389275 17.420478
Elevation: 663 ft. 663 ft.
Runway true heading: 64.6 244.6
 

Instrument Procedures

  Aerodrome Chart

IAPs (Instrument Approach Procedures)

  ILS/DME Rwy 06
  NDB/DME (GPS) or PAR Rwy 06
  NDB (GPS) or PAR Rwy 06
  POLOM 3A

Departure Procedures

  Instrument Departure Chart HLV 1A - 2Z
  Instrument Departure Chart LUTIM 2A - 2Z
  Instrument Departure Chart MORKO 2Z
  Instrument Departure Chart POLOM 3A
Satellite photo at:
Airport distance calculator
From:
Weather Reports

METAR

LKKU
22.6nm SE
LKKU 210900Z 19012KT 150V230 CAVOK 29/16 Q1013
LKMT
31.3nm NE
LKMT 210930Z 21016KT CAVOK 29/16 Q1013 NOSIG
LKTB
33.3nm SW
LKTB 210930Z VRB06KT CAVOK 28/16 Q1013 NOSIG

TAF

LKMT
31.3nm NE
TAF LKMT 210500Z 2106/2212 20006KT CAVOK BECMG 2107/2109 21014KT 9999 SCT040 TEMPO 2109/2120 22016G28KT TEMPO 2112/2121 SHRA SCT040CB PROB30 TEMPO 2118/2119 27026G40KT 4000 TSRA SCT030CB BECMG 2121/2122 01012KT TEMPO 2209/2212 BKN030
LKTB
33.3nm SW
TAF LKTB 210500Z 2106/2212 13004KT CAVOK BECMG 2110/2112 24014KT 9999 SCT040 TEMPO 2112/2120 28016G28KT SHRA SCT040CB PROB30 TEMPO 2116/2118 30024G40KT 4000 TSRA SCT030CB BECMG 2120/2122 33012KT TEMPO 2122/2212 33012G24KT
Safelog

 

Dauntless Aviation

© 2007-2018 Dauntless Aviation, all rights reserved
Information provided via PilotNav comes from a variety of official and unofficial data sources. As errors are possible, do not use PilotNav for primary flight planning purposes. Verify any information that you receive via PilotNav with current and canonical charts and other official documents. The material in this database is subject to database copyrights held by Dauntless Aviation and may not be copied without the express permission of Dauntless Aviation - licenses for use of part of all of this data are available for purchase; enquire via the Dauntless Aviation helpdesk. A number of mechanisms and markers exist in the database to protect against and identify infringement / copyright. Automated queries against this website are stictly prohibited, and all activity is logged and analyzed.